QPF
0.00 0.00 0.00 0.00 0.00 0.00 0.00 0.00 0.01 0.02 0.03 0.03 0.04 0.04 0.03 0.03 0.02 0.02 0.02 0.02 0.02 0.02 0.05 0.06 0.06 0.06 0.08 0.08 0.09 0.10 0.11 0.09 0.07 0.11 0.14 0.12 0.10 0.08 0.06 0.06 0.07 0.05 0.04
0.00 0.00 0.00 0.00 0.00 0.00 0.00 0.01 0.01 0.02 0.02 0.03 0.04 0.04 0.03 0.03 0.03 0.03 0.03 0.02 0.02 0.02 0.04 0.06 0.06 0.07 0.09 0.09 0.08 0.09 0.11 0.09 0.08 0.14 0.22 0.23 0.26 0.16 0.07 0.05 0.06 0.06 0.05
0.00 0.00 0.00 0.00 0.00 0.00 0.00 0.01 0.02 0.02 0.02 0.03 0.03 0.04 0.05 0.05 0.04 0.03 0.03 0.02 0.01 0.02 0.03 0.04 0.04 0.06 0.07 0.09 0.09 0.09 0.11 0.12 0.12 0.13 0.22 0.23 0.24 0.19 0.14 0.11 0.08 0.08 0.08
0.00 0.00 0.00 0.00 0.00 0.00 0.00 0.01 0.02 0.02 0.02 0.03 0.03 0.04 0.04 0.05 0.04 0.03 0.04 0.03 0.02 0.01 0.02 0.03 0.05 0.06 0.07 0.09 0.08 0.09 0.10 0.13 0.15 0.16 0.17 0.18 0.18 0.19 0.17 0.13 0.10 0.10 0.09
0.00 0.00 0.00 0.00 0.00 0.00 0.00 0.00 0.01 0.01 0.01 0.02 0.03 0.04 0.05 0.05 0.04 0.04 0.04 0.04 0.03 0.02 0.01 0.02 0.04 0.06 0.06 0.06 0.06 0.08 0.08 0.11 0.14 0.16 0.15 0.15 0.18 0.15 0.17 0.16 0.12 0.09 0.05
0.00 0.00 0.00 0.00 0.00 0.00 0.01 0.01 0.01 0.01 0.01 0.01 0.02 0.04 0.05 0.06 0.05 0.05 0.05 0.04 0.04 0.03 0.02 0.03 0.05 0.05 0.05 0.06 0.06 0.05 0.07 0.08 0.09 0.10 0.10 0.12 0.14 0.16 0.16 0.18 0.16 0.10 0.05
0.00 0.00 0.00 0.00 0.00 0.00 0.01 0.02 0.02 0.01 0.01 0.01 0.02 0.03 0.05 0.05 0.05 0.05 0.05 0.05 0.04 0.04 0.05 0.05 0.05 0.05 0.06 0.06 0.06 0.07 0.07 0.07 0.07 0.07 0.07 0.07 0.08 0.09 0.09 0.11 0.11 0.11 0.08
0.00 0.00 0.00 0.00 0.00 0.00 0.01 0.01 0.01 0.01 0.01 0.02 0.02 0.03 0.03 0.03 0.05 0.05 0.04 0.05 0.04 0.03 0.03 0.03 0.04 0.04 0.05 0.05 0.07 0.08 0.09 0.09 0.07 0.07 0.09 0.07 0.05 0.07 0.07 0.08 0.10 0.12 0.12
0.00 0.01 0.01 0.01 0.01 0.01 0.01 0.00 0.00 0.01 0.02 0.03 0.03 0.02 0.02 0.02 0.03 0.04 0.03 0.03 0.03 0.02 0.01 0.02 0.04 0.04 0.04 0.05 0.06 0.07 0.09 0.10 0.08 0.08 0.09 0.08 0.07 0.07 0.06 0.07 0.10 0.12 0.13
0.01 0.01 0.01 0.01 0.02 0.01 0.01 0.00 0.00 0.02 0.02 0.03 0.02 0.01 0.02 0.02 0.03 0.03 0.03 0.03 0.02 0.02 0.02 0.02 0.03 0.04 0.03 0.04 0.06 0.06 0.08 0.09 0.08 0.08 0.08 0.07 0.07 0.07 0.06 0.08 0.09 0.08 0.10
0.01 0.02 0.02 0.01 0.01 0.00 0.00 0.00 0.01 0.02 0.02 0.03 0.03 0.02 0.02 0.02 0.03 0.03 0.02 0.01 0.02 0.02 0.02 0.03 0.03 0.03 0.03 0.04 0.04 0.06 0.09 0.09 0.08 0.07 0.07 0.07 0.07 0.07 0.07 0.08 0.10 0.10 0.11
0.01 0.04 0.05 0.03 0.02 0.02 0.02 0.02 0.02 0.02 0.03 0.03 0.02 0.02 0.02 0.02 0.03 0.03 0.02 0.02 0.02 0.02 0.03 0.03 0.03 0.03 0.04 0.04 0.04 0.05 0.09 0.10 0.10 0.08 0.09 0.09 0.09 0.10 0.10 0.10 0.10 0.12 0.13
0.01 0.02 0.01 0.01 0.01 0.01 0.02 0.01 0.01 0.01 0.02 0.02 0.01 0.01 0.01 0.02 0.02 0.02 0.02 0.01 0.01 0.02 0.02 0.03 0.03 0.03 0.03 0.04 0.05 0.04 0.06 0.07 0.10 0.10 0.10 0.10 0.11 0.11 0.12 0.10 0.09 0.11 0.11
0.01 0.01 0.00 0.00 0.00 0.01 0.01 0.00 0.00 0.01 0.01 0.01 0.00 0.01 0.01 0.02 0.02 0.02 0.01 0.01 0.01 0.02 0.02 0.02 0.02 0.03 0.03 0.03 0.05 0.05 0.05 0.06 0.07 0.08 0.08 0.08 0.09 0.11 0.11 0.09 0.10 0.10 0.10
0.01 0.01 0.01 0.01 0.01 0.00 0.00 0.00 0.00 0.01 0.01 0.00 0.01 0.01 0.01 0.01 0.01 0.02 0.02 0.02 0.02 0.02 0.02 0.02 0.02 0.02 0.02 0.03 0.04 0.05 0.05 0.07 0.06 0.06 0.06 0.06 0.07 0.08 0.07 0.07 0.08 0.08 0.08
0.00 0.01 0.01 0.01 0.01 0.00 0.00 0.00 0.01 0.01 0.01 0.00 0.01 0.01 0.01 0.01 0.02 0.03 0.04 0.03 0.03 0.03 0.03 0.02 0.02 0.01 0.01 0.02 0.03 0.03 0.04 0.05 0.06 0.05 0.05 0.06 0.07 0.06 0.07 0.06 0.06 0.06 0.06
0.01 0.00 0.01 0.01 0.00 0.00 0.00 0.00 0.01 0.00 0.01 0.01 0.01 0.01 0.01 0.02 0.03 0.04 0.05 0.04 0.03 0.03 0.03 0.02 0.02 0.02 0.02 0.02 0.02 0.02 0.02 0.04 0.04 0.04 0.06 0.06 0.06 0.06 0.05 0.06 0.05 0.03 0.02
0.01 0.01 0.00 0.01 0.01 0.01 0.01 0.01 0.01 0.00 0.01 0.02 0.02 0.01 0.01 0.02 0.03 0.04 0.05 0.04 0.03 0.03 0.03 0.03 0.03 0.04 0.03 0.03 0.02 0.01 0.02 0.03 0.03 0.04 0.05 0.06 0.05 0.03 0.03 0.04 0.05 0.04 0.03
0.02 0.01 0.00 0.01 0.01 0.01 0.02 0.02 0.02 0.01 0.01 0.02 0.02 0.02 0.02 0.02 0.03 0.04 0.04 0.06 0.06 0.05 0.04 0.04 0.04 0.04 0.03 0.03 0.01 0.01 0.02 0.04 0.03 0.03 0.03 0.03 0.02 0.02 0.01 0.03 0.04 0.05 0.05
0.02 0.01 0.00 0.00 0.00 0.01 0.02 0.02 0.02 0.02 0.03 0.03 0.02 0.01 0.01 0.02 0.04 0.05 0.05 0.06 0.08 0.09 0.06 0.05 0.05 0.04 0.03 0.02 0.01 0.00 0.02 0.03 0.03 0.02 0.02 0.02 0.01 0.01 0.01 0.01 0.02 0.03 0.03
0.01 0.01 0.01 0.01 0.00 0.01 0.01 0.02 0.02 0.03 0.03 0.03 0.03 0.02 0.02 0.03 0.03 0.04 0.05 0.06 0.07 0.08 0.07 0.06 0.06 0.04 0.02 0.01 0.01 0.00 0.01 0.02 0.02 0.02 0.01 0.01 0.01 0.01 0.01 0.01 0.02 0.02 0.02
0.01 0.01 0.01 0.01 0.02 0.02 0.02 0.03 0.04 0.03 0.03 0.02 0.03 0.03 0.03 0.02 0.03 0.03 0.05 0.05 0.05 0.05 0.05 0.06 0.05 0.04 0.02 0.01 0.01 0.00 0.00 0.00 0.01 0.01 0.02 0.02 0.02 0.01 0.01 0.01 0.01 0.02 0.02
0.01 0.02 0.02 0.02 0.04 0.05 0.04 0.04 0.03 0.04 0.04 0.03 0.03 0.03 0.03 0.03 0.03 0.03 0.04 0.04 0.04 0.03 0.04 0.04 0.05 0.04 0.02 0.01 0.01 0.01 0.00 0.00 0.00 0.01 0.01 0.01 0.02 0.02 0.02 0.02 0.02 0.01 0.01
0.01 0.01 0.02 0.03 0.04 0.04 0.03 0.05 0.05 0.04 0.03 0.03 0.03 0.03 0.03 0.03 0.03 0.04 0.04 0.03 0.02 0.02 0.02 0.02 0.03 0.03 0.02 0.02 0.01 0.01 0.01 0.01 0.01 0.01 0.01 0.01 0.01 0.01 0.02 0.02 0.02 0.02 0.01
0.01 0.01 0.01 0.02 0.03 0.04 0.03 0.03 0.03 0.03 0.03 0.03 0.04 0.04 0.03 0.03 0.04 0.04 0.04 0.04 0.03 0.03 0.02 0.02 0.02 0.02 0.03 0.04 0.03 0.02 0.02 0.02 0.01 0.01 0.01 0.01 0.01 0.01 0.01 0.01 0.02 0.02 0.01
0.02 0.02 0.02 0.02 0.03 0.03 0.04 0.04 0.03 0.04 0.04 0.04 0.04 0.04 0.03 0.03 0.03 0.04 0.03 0.04 0.04 0.05 0.04 0.03 0.03 0.03 0.03 0.04 0.04 0.03 0.04 0.03 0.03 0.03 0.02 0.02 0.01 0.01 0.01 0.01 0.01 0.01 0.01
MSLP
1007.31 1007.47 1007.65 1007.84 1008.04 1008.24 1008.45 1008.67 1008.90 1009.12 1009.34 1009.54 1009.73 1009.89 1010.03 1010.15 1010.25 1010.33 1010.39 1010.43 1010.45 1010.48 1010.51 1010.57 1010.66 1010.79 1010.98 1011.21 1011.48 1011.77 1012.07 1012.35 1012.61 1012.83 1013.01 1013.15 1013.27 1013.37 1013.45 1013.53 1013.62 1013.71 1013.82
1007.21 1007.46 1007.72 1007.95 1008.16 1008.35 1008.53 1008.71 1008.91 1009.13 1009.38 1009.64 1009.91 1010.16 1010.38 1010.56 1010.68 1010.76 1010.80 1010.81 1010.80 1010.81 1010.82 1010.88 1010.97 1011.11 1011.28 1011.49 1011.72 1011.97 1012.21 1012.46 1012.69 1012.91 1013.12 1013.31 1013.50 1013.66 1013.81 1013.94 1014.06 1014.16 1014.25
1007.01 1007.39 1007.77 1008.09 1008.35 1008.55 1008.71 1008.86 1009.02 1009.22 1009.47 1009.76 1010.07 1010.39 1010.68 1010.91 1011.08 1011.18 1011.23 1011.24 1011.24 1011.24 1011.26 1011.32 1011.42 1011.54 1011.69 1011.85 1012.01 1012.18 1012.35 1012.52 1012.71 1012.92 1013.15 1013.40 1013.66 1013.92 1014.16 1014.38 1014.56 1014.70 1014.81
1006.64 1007.18 1007.71 1008.17 1008.52 1008.78 1008.94 1009.07 1009.20 1009.37 1009.61 1009.90 1010.25 1010.61 1010.95 1011.23 1011.45 1011.59 1011.67 1011.71 1011.72 1011.74 1011.78 1011.84 1011.94 1012.04 1012.15 1012.26 1012.34 1012.42 1012.49 1012.58 1012.71 1012.89 1013.13 1013.42 1013.75 1014.10 1014.45 1014.77 1015.04 1015.26 1015.42
1006.06 1006.77 1007.48 1008.10 1008.58 1008.92 1009.14 1009.28 1009.40 1009.56 1009.78 1010.08 1010.44 1010.82 1011.20 1011.54 1011.80 1011.98 1012.10 1012.16 1012.20 1012.24 1012.30 1012.38 1012.48 1012.57 1012.65 1012.69 1012.71 1012.70 1012.68 1012.69 1012.74 1012.88 1013.10 1013.41 1013.79 1014.21 1014.65 1015.06 1015.43 1015.73 1015.97
1005.31 1006.17 1007.04 1007.83 1008.47 1008.93 1009.23 1009.42 1009.57 1009.74 1009.96 1010.26 1010.63 1011.04 1011.45 1011.82 1012.12 1012.34 1012.49 1012.58 1012.65 1012.71 1012.79 1012.88 1012.98 1013.07 1013.13 1013.14 1013.10 1013.03 1012.94 1012.87 1012.86 1012.94 1013.12 1013.41 1013.80 1014.26 1014.75 1015.24 1015.68 1016.06 1016.37
1004.45 1005.42 1006.44 1007.38 1008.17 1008.76 1009.17 1009.45 1009.65 1009.86 1010.11 1010.43 1010.83 1011.26 1011.70 1012.09 1012.42 1012.66 1012.83 1012.94 1013.02 1013.10 1013.19 1013.30 1013.41 1013.50 1013.56 1013.57 1013.51 1013.41 1013.28 1013.16 1013.09 1013.11 1013.24 1013.48 1013.84 1014.29 1014.79 1015.30 1015.78 1016.22 1016.58
1003.59 1004.63 1005.74 1006.80 1007.71 1008.43 1008.96 1009.33 1009.62 1009.90 1010.21 1010.58 1011.00 1011.47 1011.93 1012.34 1012.69 1012.94 1013.12 1013.24 1013.32 1013.41 1013.50 1013.62 1013.75 1013.86 1013.95 1013.98 1013.94 1013.84 1013.71 1013.56 1013.46 1013.42 1013.48 1013.66 1013.95 1014.34 1014.80 1015.29 1015.77 1016.22 1016.62
1002.85 1003.90 1005.05 1006.18 1007.17 1007.99 1008.62 1009.10 1009.50 1009.86 1010.24 1010.67 1011.15 1011.65 1012.14 1012.58 1012.93 1013.19 1013.37 1013.48 1013.56 1013.63 1013.73 1013.86 1014.00 1014.15 1014.27 1014.35 1014.36 1014.31 1014.20 1014.07 1013.95 1013.87 1013.87 1013.97 1014.17 1014.47 1014.85 1015.27 1015.71 1016.15 1016.56
1002.31 1003.33 1004.46 1005.59 1006.62 1007.50 1008.22 1008.80 1009.29 1009.75 1010.22 1010.73 1011.26 1011.81 1012.32 1012.78 1013.14 1013.41 1013.58 1013.68 1013.75 1013.82 1013.91 1014.04 1014.21 1014.39 1014.56 1014.70 1014.78 1014.79 1014.75 1014.65 1014.54 1014.45 1014.40 1014.42 1014.53 1014.72 1014.99 1015.33 1015.70 1016.09 1016.47
1002.01 1002.95 1004.02 1005.11 1006.13 1007.03 1007.80 1008.46 1009.04 1009.59 1010.15 1010.73 1011.33 1011.92 1012.47 1012.95 1013.33 1013.60 1013.78 1013.88 1013.94 1014.01 1014.10 1014.23 1014.41 1014.62 1014.83 1015.03 1015.18 1015.28 1015.30 1015.27 1015.20 1015.11 1015.04 1015.00 1015.03 1015.12 1015.29 1015.52 1015.80 1016.13 1016.47
1001.89 1002.74 1003.72 1004.73 1005.71 1006.60 1007.40 1008.11 1008.77 1009.41 1010.04 1010.69 1011.34 1011.97 1012.56 1013.06 1013.47 1013.76 1013.96 1014.08 1014.15 1014.22 1014.31 1014.45 1014.64 1014.86 1015.11 1015.35 1015.57 1015.73 1015.83 1015.86 1015.85 1015.79 1015.72 1015.66 1015.63 1015.65 1015.73 1015.88 1016.08 1016.32 1016.61
1001.85 1002.61 1003.49 1004.41 1005.33 1006.20 1007.01 1007.77 1008.48 1009.18 1009.88 1010.58 1011.28 1011.95 1012.57 1013.11 1013.55 1013.88 1014.11 1014.27 1014.38 1014.48 1014.58 1014.73 1014.92 1015.15 1015.41 1015.67 1015.92 1016.14 1016.30 1016.40 1016.44 1016.44 1016.40 1016.35 1016.30 1016.28 1016.31 1016.38 1016.51 1016.69 1016.91
1001.77 1002.45 1003.24 1004.09 1004.95 1005.80 1006.62 1007.40 1008.17 1008.92 1009.66 1010.40 1011.13 1011.83 1012.48 1013.05 1013.54 1013.92 1014.22 1014.44 1014.61 1014.75 1014.89 1015.05 1015.24 1015.46 1015.71 1015.98 1016.24 1016.48 1016.68 1016.84 1016.94 1017.00 1017.01 1017.00 1016.97 1016.95 1016.95 1016.98 1017.06 1017.18 1017.34
1001.54 1002.16 1002.88 1003.68 1004.50 1005.34 1006.18 1007.00 1007.80 1008.60 1009.38 1010.15 1010.89 1011.61 1012.28 1012.89 1013.42 1013.87 1014.25 1014.55 1014.80 1015.01 1015.20 1015.38 1015.58 1015.79 1016.01 1016.25 1016.50 1016.74 1016.96 1017.15 1017.31 1017.43 1017.51 1017.55 1017.57 1017.58 1017.58 1017.61 1017.66 1017.74 1017.85
1001.09 1001.68 1002.36 1003.13 1003.95 1004.81 1005.67 1006.54 1007.39 1008.22 1009.02 1009.81 1010.56 1011.28 1011.97 1012.60 1013.18 1013.71 1014.17 1014.57 1014.91 1015.21 1015.46 1015.68 1015.88 1016.08 1016.27 1016.47 1016.68 1016.90 1017.12 1017.34 1017.54 1017.72 1017.86 1017.98 1018.06 1018.11 1018.14 1018.17 1018.21 1018.26 1018.33
1000.45 1001.01 1001.69 1002.45 1003.29 1004.18 1005.09 1006.01 1006.91 1007.78 1008.61 1009.40 1010.15 1010.87 1011.56 1012.21 1012.83 1013.42 1013.97 1014.47 1014.91 1015.29 1015.62 1015.89 1016.11 1016.29 1016.46 1016.62 1016.79 1016.98 1017.19 1017.41 1017.64 1017.87 1018.08 1018.25 1018.39 1018.50 1018.57 1018.61 1018.64 1018.67 1018.71
999.68 1000.23 1000.90 1001.67 1002.54 1003.48 1004.46 1005.43 1006.38 1007.29 1008.14 1008.94 1009.69 1010.40 1011.08 1011.74 1012.39 1013.03 1013.65 1014.23 1014.77 1015.24 1015.64 1015.96 1016.21 1016.40 1016.55 1016.69 1016.82 1016.98 1017.18 1017.40 1017.65 1017.90 1018.16 1018.39 1018.58 1018.73 1018.82 1018.88 1018.91 1018.92 1018.92
998.92 999.44 1000.10 1000.88 1001.78 1002.77 1003.79 1004.83 1005.83 1006.78 1007.65 1008.46 1009.20 1009.89 1010.56 1011.22 1011.89 1012.55 1013.22 1013.87 1014.48 1015.02 1015.49 1015.87 1016.15 1016.37 1016.53 1016.65 1016.78 1016.92 1017.10 1017.33 1017.58 1017.86 1018.14 1018.40 1018.63 1018.80 1018.91 1018.97 1018.99 1018.98 1018.94
998.28 998.76 999.38 1000.16 1001.07 1002.08 1003.14 1004.22 1005.26 1006.24 1007.14 1007.95 1008.69 1009.37 1010.02 1010.68 1011.34 1012.02 1012.71 1013.39 1014.05 1014.66 1015.18 1015.61 1015.95 1016.20 1016.38 1016.53 1016.66 1016.81 1017.00 1017.22 1017.48 1017.77 1018.06 1018.34 1018.57 1018.75 1018.86 1018.91 1018.90 1018.86 1018.80
997.87 998.27 998.84 999.58 1000.46 1001.46 1002.53 1003.63 1004.69 1005.70 1006.61 1007.43 1008.17 1008.84 1009.48 1010.12 1010.77 1011.44 1012.13 1012.83 1013.52 1014.15 1014.72 1015.21 1015.59 1015.90 1016.13 1016.31 1016.48 1016.66 1016.86 1017.10 1017.36 1017.65 1017.94 1018.21 1018.43 1018.59 1018.69 1018.72 1018.69 1018.62 1018.54
997.73 998.04 998.51 999.16 999.98 1000.93 1001.97 1003.05 1004.11 1005.12 1006.05 1006.88 1007.62 1008.29 1008.92 1009.54 1010.17 1010.82 1011.50 1012.19 1012.88 1013.54 1014.14 1014.66 1015.11 1015.47 1015.77 1016.01 1016.24 1016.46 1016.69 1016.95 1017.22 1017.50 1017.78 1018.02 1018.22 1018.36 1018.43 1018.44 1018.39 1018.30 1018.19
997.84 998.03 998.38 998.91 999.62 1000.48 1001.45 1002.48 1003.51 1004.51 1005.43 1006.27 1007.02 1007.70 1008.33 1008.94 1009.55 1010.18 1010.83 1011.50 1012.17 1012.83 1013.45 1014.01 1014.51 1014.94 1015.30 1015.62 1015.92 1016.19 1016.47 1016.75 1017.03 1017.31 1017.56 1017.78 1017.95 1018.06 1018.10 1018.09 1018.02 1017.93 1017.82
998.14 998.19 998.40 998.79 999.36 1000.10 1000.96 1001.91 1002.89 1003.86 1004.77 1005.61 1006.37 1007.06 1007.69 1008.30 1008.89 1009.49 1010.12 1010.76 1011.41 1012.06 1012.69 1013.28 1013.82 1014.31 1014.75 1015.15 1015.51 1015.85 1016.17 1016.47 1016.76 1017.03 1017.26 1017.46 1017.60 1017.68 1017.71 1017.68 1017.62 1017.54 1017.44
998.53 998.45 998.51 998.75 999.17 999.76 1000.50 1001.35 1002.26 1003.18 1004.07 1004.90 1005.67 1006.37 1007.01 1007.62 1008.20 1008.78 1009.38 1010.00 1010.62 1011.26 1011.89 1012.50 1013.08 1013.63 1014.13 1014.59 1015.02 1015.41 1015.77 1016.10 1016.39 1016.65 1016.86 1017.03 1017.15 1017.22 1017.24 1017.23 1017.18 1017.13 1017.06
998.92 998.72 998.66 998.75 999.02 999.47 1000.08 1000.82 1001.64 1002.49 1003.35 1004.17 1004.94 1005.65 1006.30 1006.91 1007.50 1008.07 1008.65 1009.24 1009.84 1010.46 1011.09 1011.71 1012.32 1012.90 1013.45 1013.97 1014.44 1014.87 1015.26 1015.60 1015.89 1016.14 1016.33 1016.48 1016.59 1016.66 1016.70 1016.71 1016.71 1016.70 1016.70
Thickness
5835 5834 5831 5827 5821 5814 5808 5804 5799 5796 5793 5789 5784 5780 5778 5778 5777 5776 5773 5771 5769 5767 5766 5764 5762 5761 5759 5757 5757 5756 5755 5754 5756 5753 5750 5753 5757 5758 5758 5758 5757 5756 5755
5835 5833 5830 5827 5821 5815 5810 5805 5801 5797 5794 5791 5787 5785 5782 5780 5779 5777 5774 5772 5770 5768 5767 5764 5762 5761 5759 5757 5757 5756 5753 5753 5756 5751 5745 5740 5744 5750 5757 5757 5756 5756 5755
5836 5832 5829 5827 5823 5817 5812 5809 5804 5800 5796 5793 5790 5787 5784 5780 5778 5776 5774 5773 5771 5769 5767 5765 5764 5762 5761 5758 5757 5756 5753 5750 5753 5755 5747 5739 5735 5741 5748 5752 5753 5753 5753
5843 5837 5831 5827 5824 5821 5817 5812 5806 5802 5798 5795 5790 5785 5780 5776 5777 5777 5775 5774 5772 5770 5769 5767 5765 5763 5762 5760 5759 5758 5756 5753 5750 5752 5753 5751 5748 5740 5736 5743 5747 5749 5748
5848 5841 5836 5832 5829 5826 5820 5814 5808 5803 5800 5796 5792 5787 5783 5781 5780 5779 5776 5774 5773 5771 5770 5768 5766 5763 5762 5761 5760 5759 5757 5755 5752 5751 5751 5750 5749 5747 5738 5733 5737 5741 5745
5852 5846 5842 5837 5831 5828 5823 5816 5809 5803 5801 5797 5793 5788 5784 5781 5778 5776 5774 5773 5772 5771 5770 5769 5766 5763 5762 5760 5759 5758 5757 5756 5755 5753 5752 5749 5746 5744 5741 5734 5733 5734 5739
5853 5847 5841 5836 5831 5827 5823 5818 5810 5803 5801 5798 5794 5791 5787 5783 5779 5776 5775 5773 5772 5770 5770 5769 5766 5764 5762 5761 5759 5757 5756 5756 5754 5752 5752 5752 5750 5750 5745 5739 5735 5733 5735
5853 5847 5843 5838 5833 5829 5824 5819 5812 5806 5803 5799 5795 5793 5789 5785 5782 5780 5777 5775 5773 5772 5772 5769 5767 5764 5763 5761 5759 5757 5756 5755 5753 5752 5751 5750 5750 5751 5747 5742 5736 5730 5729
5852 5848 5844 5840 5835 5830 5826 5821 5814 5808 5804 5800 5796 5793 5790 5786 5783 5782 5779 5777 5775 5774 5772 5769 5766 5764 5762 5760 5758 5755 5754 5753 5752 5751 5750 5749 5749 5749 5747 5745 5741 5732 5724
5849 5845 5842 5839 5836 5832 5827 5823 5817 5810 5806 5801 5798 5794 5791 5788 5785 5782 5779 5777 5775 5773 5771 5768 5765 5763 5761 5760 5757 5754 5753 5751 5750 5749 5747 5747 5746 5746 5746 5743 5741 5738 5731
5845 5842 5840 5838 5836 5833 5827 5822 5817 5811 5806 5802 5798 5795 5791 5788 5785 5781 5780 5777 5775 5772 5770 5767 5764 5762 5759 5758 5755 5753 5751 5749 5747 5746 5745 5744 5743 5742 5742 5741 5738 5735 5731
5845 5841 5838 5835 5832 5830 5825 5820 5816 5811 5807 5802 5798 5794 5791 5787 5784 5780 5778 5777 5774 5771 5769 5766 5763 5760 5758 5755 5753 5750 5749 5746 5743 5742 5741 5739 5740 5737 5737 5735 5733 5731 5729
5840 5838 5835 5832 5829 5827 5823 5819 5815 5811 5808 5803 5797 5793 5790 5786 5782 5779 5777 5775 5772 5769 5767 5764 5760 5758 5755 5753 5751 5748 5746 5743 5740 5738 5736 5734 5733 5731 5731 5730 5728 5727 5725
5835 5832 5828 5827 5826 5824 5821 5817 5814 5811 5807 5802 5796 5791 5788 5785 5781 5778 5775 5773 5770 5767 5764 5761 5758 5755 5752 5750 5747 5744 5742 5739 5736 5734 5732 5730 5728 5726 5725 5724 5722 5721 5717
5828 5825 5822 5821 5821 5819 5816 5814 5811 5808 5805 5799 5794 5790 5787 5784 5780 5776 5773 5770 5767 5764 5761 5757 5754 5751 5748 5745 5741 5739 5738 5734 5732 5730 5728 5725 5723 5721 5719 5718 5715 5713 5710
5822 5821 5819 5817 5815 5813 5811 5809 5806 5804 5801 5796 5791 5788 5785 5780 5776 5773 5769 5766 5763 5760 5757 5753 5749 5746 5743 5739 5736 5734 5732 5730 5728 5725 5723 5721 5718 5716 5713 5711 5709 5706 5703
5818 5816 5815 5813 5811 5810 5808 5804 5802 5800 5796 5791 5788 5785 5781 5776 5773 5770 5765 5761 5758 5755 5751 5748 5744 5740 5736 5733 5731 5729 5727 5725 5723 5721 5718 5717 5714 5710 5707 5705 5703 5700 5697
5814 5813 5812 5809 5808 5807 5804 5801 5798 5795 5791 5787 5784 5781 5777 5773 5770 5766 5761 5758 5755 5751 5746 5743 5740 5736 5731 5728 5726 5724 5723 5721 5718 5715 5712 5709 5705 5703 5700 5699 5697 5693 5690
5809 5809 5810 5808 5804 5801 5798 5795 5791 5789 5785 5782 5779 5776 5773 5769 5765 5761 5758 5755 5751 5746 5742 5739 5735 5731 5726 5723 5721 5719 5718 5714 5711 5708 5705 5702 5698 5695 5694 5693 5689 5686 5682
5803 5803 5804 5802 5797 5794 5792 5788 5784 5782 5779 5777 5775 5773 5770 5765 5760 5757 5753 5750 5746 5742 5738 5734 5731 5726 5721 5717 5715 5713 5713 5709 5706 5701 5696 5693 5690 5688 5686 5685 5682 5677 5675
5797 5797 5796 5793 5790 5789 5786 5781 5779 5776 5775 5774 5771 5768 5765 5761 5757 5752 5748 5744 5741 5736 5732 5728 5725 5721 5715 5711 5709 5707 5706 5703 5699 5695 5690 5685 5682 5681 5679 5677 5674 5670 5668
5786 5787 5785 5782 5782 5782 5778 5774 5771 5772 5770 5768 5764 5760 5757 5755 5751 5746 5742 5738 5734 5729 5725 5721 5717 5714 5709 5705 5702 5700 5698 5696 5692 5687 5683 5678 5675 5673 5671 5669 5667 5665 5663
5776 5777 5775 5772 5772 5772 5770 5765 5764 5764 5762 5759 5755 5752 5750 5747 5744 5740 5735 5730 5726 5723 5720 5716 5711 5707 5703 5698 5695 5692 5689 5687 5683 5678 5674 5670 5668 5665 5663 5661 5659 5658 5655
5766 5767 5765 5762 5760 5761 5760 5759 5757 5757 5753 5749 5745 5743 5740 5738 5735 5732 5729 5725 5721 5717 5714 5710 5706 5701 5697 5692 5688 5685 5681 5677 5673 5669 5666 5663 5660 5658 5655 5653 5651 5649 5646
5755 5756 5754 5752 5752 5752 5752 5751 5749 5748 5744 5740 5736 5734 5732 5729 5724 5720 5716 5714 5709 5708 5707 5704 5700 5695 5689 5684 5681 5678 5674 5670 5666 5662 5661 5657 5654 5651 5649 5646 5644 5641 5639
5744 5744 5745 5744 5744 5743 5742 5742 5741 5739 5734 5730 5728 5726 5724 5721 5717 5711 5704 5698 5699 5697 5696 5694 5692 5686 5682 5677 5674 5671 5667 5663 5659 5656 5653 5651 5648 5645 5642 5639 5636 5633 5630